Regional Weather Roundup
Issued by NWS

Home | Current Version | Previous Version | Graphics & Text | Print | Product List | Glossary On
Versions: 1 2 3 4 5 6 7 8 9 10 11 12 13 14 15 16 17 18 19 20 21 22 23 24 25 26 27 28 29 30 31 32 33 34 35 36 37 38 39 40 41 42 43 44 45 46 47 48 49 50
000
ASUS45 KCYS 180010
RWRWY

WYOMING REGIONAL WEATHER ROUNDUP
NATIONAL WEATHER SERVICE CHEYENNE WY
500 PM MST WED DEC 17 2014

NOTE:  "FAIR" INDICATES FEW OR NO CLOUDS BELOW 12,000 FEET
WITH NO SIGNIFICANT WEATHER AND/OR OBSTRUCTIONS TO VISIBILITY.

WYZ001-180100-
YELLOWSTONE NATIONAL PARK

CITY           SKY/WX    TMP DP  RH WIND       PRES   REMARKS
LK YELLOWSTONE   N/A     21  15  78 CALM      29.95R
6HR MIN TEMP:  21; 6HR MAX TEMP:  26;

W YELLOWSTONE  NOT AVBL

$$
WYZ002>013-054>058-071-098>099-180100-
NORTHERN WYOMING

CITY           SKY/WX    TMP DP  RH WIND       PRES   REMARKS
JACKSON        CLOUDY    28  25  86 S7        29.95R WCI  21
CODY           FAIR      19  16  86 SE6       29.90S WCI  11
GREYBULL       FAIR      23  17  78 CALM      29.95S
6HR MIN TEMP:  20; 6HR MAX TEMP:  25;

WORLAND        FAIR      10   7  87 SW6       29.94S WCI   0
6HR MIN TEMP:  10; 6HR MAX TEMP:  18;

SHERIDAN       FAIR      16  12  84 SW5       29.94R WCI   9
6HR MIN TEMP:  16; 6HR MAX TEMP:  26;

BUFFALO        FAIR      27  18  69 W5        29.94R WCI  22
6HR MIN TEMP:  27; 6HR MAX TEMP:  35;

GILLETTE       FAIR      20  14  77 CALM      29.94R
6HR MIN TEMP:  19; 6HR MAX TEMP:  31;

HULETT           N/A    N/A N/A N/A MISG        N/A
NEWCASTLE      FAIR      19  19 100 CALM      29.96R

$$
WYZ014>020-022>026-101>103-180100-
CENTRAL WYOMING

CITY           SKY/WX    TMP DP  RH WIND       PRES   REMARKS
BIG PINEY      CLOUDY    26  18  71 NE9       29.96R WCI  17
6HR MIN TEMP:  26; 6HR MAX TEMP:  35;

PINEDALE       FAIR      21  18  86 W3        29.97R
DUBOIS         FAIR      28  18  64 NW12      29.90R WCI  18
LANDER         FAIR      11   8  88 SE3       29.93S
6HR MIN TEMP:   8; 6HR MAX TEMP:  18;

RIVERTON       FOG       17  14  88 CALM      29.95R VSB 1/4
6HR MIN TEMP:  16; 6HR MAX TEMP:  19;

CASPER         FAIR      28  19  69 SW14      29.92S WCI  17
6HR MIN TEMP:  28; 6HR MAX TEMP:  33;

DOUGLAS        FAIR      26  20  77 S5        29.93R WCI  20
6HR MIN TEMP:  21; 6HR MAX TEMP:  41;


$$
WYZ021-027>030-104>119-180100-
SOUTHERN WYOMING

CITY           SKY/WX    TMP DP  RH WIND       PRES   REMARKS
EVANSTON       FAIR      31  18  58 W8        29.96R WCI  23
6HR MIN TEMP:  30; 6HR MAX TEMP:  37;

KEMMERER       CLOUDY    32  21  64 NW3       29.96S
FORT BRIDGER   FAIR      32  19  59 NW5       29.98S WCI  27
ROCK SPRINGS   FAIR      24  17  74 CALM      29.97R
6HR MIN TEMP:  18; 6HR MAX TEMP:  27;

DIXON          FOG       15  14  95 CALM      30.01R VSB<1/4
RAWLINS        FAIR      17  14  88 CALM      29.95R
6HR MIN TEMP:  17; 6HR MAX TEMP:  32;

SARATOGA       FAIR      23  19  86 SW5       29.97R WCI  17
LARAMIE        FAIR      25  18  74 NE7       29.92R WCI  17
6HR MIN TEMP:  23; 6HR MAX TEMP:  36;

CHEYENNE       CLOUDY    36  19  50 W6        29.91R WCI  31
6HR MIN TEMP:  36; 6HR MAX TEMP:  47;

TORRINGTON     FAIR      18  16  92 E9        29.95R WCI   7
6HR MIN TEMP:  18; 6HR MAX TEMP:  25;

PINE BLUFFS    MOCLDY    30  27  86 CALM      29.94R

$$


USA.gov is the U.S. government's official web portal to all federal, state and local government web resources and services.